Flag for Brazil Weather past 2 weeks in Fernando de Noronha, Pernambuco, Brazil

Now
73 °F

Passing clouds.


Feels Like: 72 °F
Forecast: 76 / 80 °F
Wind: 9 mph from South

Location: Natal Aeroporto

Current Time: Sep 21, 2014 at 4:35:37 AM

Latest Report: Sep 21, 2014 at 4:00 AM


Visibility: N/A

Pressure: 29.95 "Hg

Humidity: 89%

Dew point: 70 °F

Location of Fernando de NoronhaLocation

Historic Weather in Fernando de Noronha — Graph

°F

Fernando de Noronha temperature yesterday

Maximum temperature yesterday: 84 °F (at 11:00 AM)
Minimum temperature yesterday: 70 °F (at 6:00 AM)
Average temperature yesterday: 77 °F

Past Weeks' High & Low Weather Summary

 TemperatureHumidityPressure
High84 °F (Sep 6, 1:00 PM)100% (Sep 8, 11:00 AM)30.07 "Hg (Sep 8, 11:00 AM)
Low39 °F (Sep 9, 6:00 PM)48% (Sep 15, 4:00 PM)29.89 "Hg (Sep 11, 3:00 PM)
Average76 °F76%29.97 "Hg
* Reported Sep 6 3:00 AM — Sep 21 3:00 AM, Fernando de Noronha, Weather by CustomWeather, © 2014

Note: Actual official high and low records may vary slightly from our data, if they occured in-between our weather recording intervals... More about our weather records

Advertising

Fernando de Noronha weather history for previous 24 hours

 ConditionsComfort  
Time TempWeatherWind HumidityBarometerVisibility
3:00 AM
Sep 21
73 °FLight rain. Passing clouds.7 mph89%29.95 "Hg4 mi
2:00 AM75 °FPassing clouds.7 mph83%29.95 "HgN/A
1:00 AM75 °FPassing clouds.8 mph83%29.98 "HgN/A
12:00 AM75 °FPassing clouds.9 mph83%30.01 "HgN/A
11:00 PM
Sep 20
77 °FPassing clouds.9 mph79%30.01 "HgN/A
10:00 PM77 °FPassing clouds.12 mph79%30.01 "HgN/A
9:00 PM77 °FPassing clouds.12 mph79%30.01 "HgN/A
8:00 PM77 °FPassing clouds.12 mph79%29.98 "HgN/A
7:00 PM79 °FClear.14 mph74%29.98 "Hg10 mi
6:00 PM81 °FPassing clouds.16 mph70%29.95 "HgN/A
5:00 PM81 °FPassing clouds.20 mph70%29.92 "HgN/A
4:00 PM84 °FPassing clouds.17 mph58%29.92 "HgN/A
11:00 AM84 °FScattered clouds.17 mph58%30.04 "HgN/A
10:00 AM82 °FScattered clouds.15 mph62%30.04 "HgN/A
9:00 AM81 °FScattered clouds.16 mph66%30.04 "HgN/A
8:00 AM77 °FPassing clouds.6 mph79%30.01 "HgN/A
7:00 AM72 °FPassing clouds.5 mph88%30.01 "HgN/A
6:00 AM70 °FPassing clouds.6 mph88%29.98 "HgN/A
5:00 AM72 °FPassing clouds.6 mph88%29.95 "HgN/A
4:00 AM72 °FPassing clouds.6 mph83%29.95 "HgN/A
Weather by CustomWeather, © 2014

See weather overviewHow to use our weather pages